Regional Weather Roundup
Issued by NWS

Home | Current Version | Previous Version | Graphics & Text | Print | Product List | Glossary On
Versions: 1 2 3 4 5 6 7 8 9 10 11 12 13 14 15 16 17 18 19 20 21 22 23 24 25 26 27 28 29 30 31 32 33 34 35 36 37 38 39 40 41 42 43 44 45 46 47 48 49 50
000
ASUS45 KBOI 051710
RWRID
WEATHER ROUNDUP FOR IDAHO
NATIONAL WEATHER SERVICE BOISE ID
1000 AM MST THU MAR 05 2015

NOTE: "FAIR" INDICATES FEW OR NO CLOUDS BELOW 12000 FEET
WITH NO SIGNIFICANT WEATHER AND/OR OBSTRUCTIONS TO VISIBILITY

IDZ012-014-051800-
SOUTHWEST IDAHO


CITY           SKY/WX    TMP DP  RH WIND       PRES   REMARKS
BOISE          SUNNY     40  17  39 CALM      30.41S
CALDWELL       SUNNY     36  16  44 S6        30.45S WCI  31
MOUNTAIN HOME  SUNNY     37  15  40 E13       30.41S WCI  28
$$

IDZ016-017-051800-
SOUTHCENTRAL IDAHO


CITY           SKY/WX    TMP DP  RH WIND       PRES   REMARKS
JEROME         PTSUNNY   34  13  41 SE5       30.41R WCI  30
TWIN FALLS     MOSUNNY   44  14  29 SW8       30.40R
$$

IDZ019>023-051800-
SOUTHEAST IDAHO


CITY           SKY/WX    TMP DP  RH WIND       PRES   REMARKS
IDAHO FALLS    MOSUNNY   31  16  54 S7        30.41S WCI  24
POCATELLO      SUNNY     37  20  50 CALM      30.41R
REXBURG        MOSUNNY   23  13  65 E3        30.41S
$$

IDZ006-010-011-018-031-032-051800-
CENTRAL IDAHO MOUNTAINS


CITY           SKY/WX    TMP DP  RH WIND       PRES   REMARKS
MCCALL         SUNNY     26  12  55 CALM      30.35R
HAILEY         MOSUNNY   27  10  50 NW8       30.38R WCI  18
STANLEY          N/A     15   3  59 CALM      30.37F
SALMON         SUNNY     25  14  63 CALM      30.39F
CHALLIS        SUNNY     30   9  41 N3        30.35F
$$

IDZ002-004-006-007-026-051800-
NORTHERN IDAHO


CITY           SKY/WX    TMP DP  RH WIND       PRES   REMARKS
LEWISTON       PTSUNNY   35  22  58 NW3       30.36S
LOWELL           N/A     31  20  63 N3        30.45F
COEUR D`ALENE  SUNNY     34  21  60 NE8       30.32S WCI  27
MULLAN PASS    MOSUNNY   28   4  35 VRB7      30.22R WCI  21
$$



USA.gov is the U.S. government's official web portal to all federal, state and local government web resources and services.